Satellite: GO-32
Catalog number: 25397
Epoch time:      09035.61521771
Element set:    0816
Inclination:      098.3407 deg
RA of node:       064.9769 deg
Eccentricity:    0.0000330
Arg of perigee:   295.8469 deg
Mean anomaly:     064.2682 deg
Mean motion:   14.23154592 rev/day
Decay rate:        5.0e-08 rev/day^2
Epoch rev:           54927
Checksum:              322

Satellite: NO-44
Catalog number: 26931
Epoch time:      09035.49500491
Element set:    0092
Inclination:      067.0512 deg
RA of node:       046.1916 deg
Eccentricity:    0.0005621
Arg of perigee:   260.8564 deg
Mean anomaly:     099.1899 deg
Mean motion:   14.29545348 rev/day
Decay rate:      -2.51e-06 rev/day^2
Epoch rev:           38361
Checksum:              312

Satellite: SO-50
Catalog number: 27607
Epoch time:      09035.58849474
Element set:    0807
Inclination:      064.5583 deg
RA of node:       067.8129 deg
Eccentricity:    0.0079843
Arg of perigee:   234.2324 deg
Mean anomaly:     125.1345 deg
Mean motion:   14.71412644 rev/day
Decay rate:       -9.1e-07 rev/day^2
Epoch rev:           32916
Checksum:              321

Satellite: CO-55
Catalog number: 27844
Epoch time:      09035.65243590
Element set:     504
Inclination:      098.7160 deg
RA of node:       046.6774 deg
Eccentricity:    0.0010010
Arg of perigee:   161.9687 deg
Mean anomaly:     198.1849 deg
Mean motion:   14.20620374 rev/day
Decay rate:        1.0e-07 rev/day^2
Epoch rev:           29044
Checksum:              300

Satellite: CO-57
Catalog number: 27848
Epoch time:      09036.52734018
Element set:     451
Inclination:      098.7172 deg
RA of node:       046.6051 deg
Eccentricity:    0.0009685
Arg of perigee:   163.5682 deg
Mean anomaly:     196.5806 deg
Mean motion:   14.20425142 rev/day
Decay rate:        1.0e-08 rev/day^2
Epoch rev:           29053
Checksum:              306

Satellite: AO-51
Catalog number: 28375
Epoch time:      09035.58454181
Element set:     309
Inclination:      098.0564 deg
RA of node:       052.8899 deg
Eccentricity:    0.0083463
Arg of perigee:   167.0833 deg
Mean anomaly:     193.2519 deg
Mean motion:   14.40632051 rev/day
Decay rate:     -.00000000 rev/day^2
Epoch rev:           24186
Checksum:              302

Satellite: CO-56
Catalog number: 28941
Epoch time:      09036.72226953
Element set:     791
Inclination:      098.1247 deg
RA of node:       188.1095 deg
Eccentricity:    0.0122305
Arg of perigee:   264.7268 deg
Mean anomaly:     094.0118 deg
Mean motion:   15.70609689 rev/day
Decay rate:     4.5787e-04 rev/day^2
Epoch rev:           16652
Checksum:              350

Satellite: CP3
Catalog number: 31128
Epoch time:      09036.39572542
Element set:     548
Inclination:      098.0100 deg
RA of node:       095.5878 deg
Eccentricity:    0.0102772
Arg of perigee:   334.2260 deg
Mean anomaly:     025.3837 deg
Mean motion:   14.52015428 rev/day
Decay rate:       -4.8e-07 rev/day^2
Epoch rev:            9577
Checksum:              300

Satellite: CP4
Catalog number: 31132
Epoch time:      09035.16418389
Element set:    0533
Inclination:      098.0150 deg
RA of node:       097.7421 deg
Eccentricity:    0.0084912
Arg of perigee:   328.4478 deg
Mean anomaly:     031.1642 deg
Mean motion:   14.55180658 rev/day
Decay rate:        6.1e-07 rev/day^2
Epoch rev:           09568
Checksum:              300

Satellite: CO-65
Catalog number: 32785
Epoch time:      09035.33796112
Element set:    0290
Inclination:      097.9640 deg
RA of node:       100.2969 deg
Eccentricity:    0.0016101
Arg of perigee:   101.5492 deg
Mean anomaly:     258.7532 deg
Mean motion:   14.81445366 rev/day
Decay rate:       2.15e-06 rev/day^2
Epoch rev:           04177
Checksum:              300

/EX
SB KEPS @ AMSAT  $ORB09036.W
Orbital Elements  09036.WEATHER

HR AMSAT ORBITAL ELEMENTS FOR WEATHER SATELLITES
FROM WA5QGD FORT WORTH,TX February 5, 2009
Send Subscribe/unsubscribe to KEPS at 
http://www.amsat.org/mailman/listinfo/keps
BID: ORB09036.W
TO ALL RADIO AMATEURS BT

Satellite: NOAA-10
Catalog number: 16969
Epoch time:      09035.60177696
Element set:    0489
Inclination:      098.7061 deg
RA of node:       062.8878 deg
Eccentricity:    0.0011870
Arg of perigee:   220.7694 deg
Mean anomaly:     139.2613 deg
Mean motion:   14.27378977 rev/day
Decay rate:       -5.6e-07 rev/day^2
Epoch rev:           16459
Checksum:              357

Satellite: NOAA-11
Catalog number: 19531
Epoch time:      09035.68502117
Element set:    0502
Inclination:      098.7863 deg
RA of node:       127.6832 deg
Eccentricity:    0.0012084
Arg of perigee:   123.6169 deg
Mean anomaly:     236.6174 deg
Mean motion:   14.14887258 rev/day
Decay rate:      -2.06e-06 rev/day^2
Epoch rev:           05078
Checksum:              304

Satellite: NOAA-12
Catalog number: 21263
Epoch time:      09035.94547031
Element set:    0014
Inclination:      098.7730 deg
RA of node:       043.9397 deg
Eccentricity:    0.0012406
Arg of perigee:   165.8459 deg
Mean anomaly:     194.3071 deg
Mean motion:   14.25565191 rev/day
Decay rate:     -.00000000 rev/day^2
Epoch rev:           92155
Checksum:              282

